Regional Weather Roundup
Issued by NWS

Home | Current Version | Previous Version | Text Only | Print | Product List | Glossary On
Versions: 1 2 3 4 5 6 7 8 9 10 11 12 13 14 15 16 17 18 19 20 21 22 23 24 25 26 27 28 29 30 31 32 33 34 35 36 37 38 39 40 41 42 43 44 45 46 47 48 49 50
491
ASUS43 KIND 211209
RWRIN

WEATHER ROUNDUP FOR INDIANA
NATIONAL WEATHER SERVICE INDIANAPOLIS IN
800 AM EDT THU SEP 21 2017

NOTE: "FAIR" INDICATES FEW OR NO CLOUDS BELOW 12,000 FEET WITH NO
SIGNIFICANT WEATHER AND/OR OBSTRUCTIONS TO VISIBILITY.

* - STATION DOES NOT REPORT WEATHER SUCH AS PRECIPITATION OR FOG.

+ - STATION NOT QUALITY CONTROLLED BY THE NATIONAL WEATHER SERVICE.
    USE DATA WITH CAUTION...ESPECIALLY DEWPOINT AND RELATIVE
    HUMIDITY OBSERVATIONS.

INZ001>003-010>013-019-020-211300-
NORTHWEST INDIANA

CITY           SKY/WX    TMP DP  RH WIND       PRES   REMARKS
GARY /AIRPORT/ MOCLDY    73  70  88 CALM      29.99S
KNOX *+        PTCLDY    70  68  94 S3        30.02S
LA PORTE +     CLEAR     68  67  97 CALM      30.03S FOG
6HR MIN TEMP:  67; 6HR MAX TEMP:  71;

MONTICELLO +   PTCLDY    68  67  96 E3        30.03R FOG
6HR MIN TEMP:  68; 6HR MAX TEMP:  74;

RENSSELAER +   CLOUDY    68  63  83 CALM      30.03R FOG
VALPARAISO     PTCLDY    70  68  93 SE5       30.02S FOG
6HR MIN TEMP:  70; 6HR MAX TEMP:  75;


$$

LMZ046-743>745-211300-
SOUTHERN LAKE MICHIGAN

STATION/POSITION TIME  TEMP    WIND        PRES    WAVE
                       AIR SEA DIR/SP/G            HT
                 (UTC) (F)     (DEG/KT/KT) (MB)    (FT)
BURNS HARBOR     1140   74     180/  8/ 11 1015.9S
MICHIGAN CITY    1140   73     160/  9/ 11   N/A
5NW MICH CITY    1200   71 69  170/  8/  8   N/A     0

$$

INZ004-005-014>016-021>024-211300-
NORTH CENTRAL INDIANA

CITY           SKY/WX    TMP DP  RH WIND       PRES   REMARKS
ELKHART        CLOUDY    70  68  94 CALM      30.03S FOG
GOSHEN         CLEAR     71  67  87 SE6       30.04S FOG
6HR MIN TEMP:  70; 6HR MAX TEMP:  73;

LOGANSPORT +   PTCLDY    68  68 100 E5        30.06R FOG
PERU/GRISSOM   CLOUDY    70  70 100 SE6       30.05S
6HR MIN TEMP:  69; 6HR MAX TEMP:  71; 6HR PCP: TRACE;

ROCHESTER +    PTCLDY    73  72  94 SE5       30.05R
SOUTH BEND     CLOUDY    70  70 100 CALM      30.03S
6HR MIN TEMP:  67; 6HR MAX TEMP:  72;

WARSAW +       PTCLDY    70  70 100 CALM      30.05S FOG

$$

INZ006>009-017-018-025>027-211300-
NORTHEAST INDIANA

CITY           SKY/WX    TMP DP  RH WIND       PRES   REMARKS
AUBURN +         N/A     68  64  88 CALM      30.08S FOG
FORT WAYNE     CLOUDY    68  66  93 S6        30.07S
6HR MIN TEMP:  67; 6HR MAX TEMP:  70;

HUNTINGTON +   PTCLDY    69  68  96 S5        30.07S FOG
6HR MIN TEMP:  68; 6HR MAX TEMP:  71;

KENDALLVILLE + CLOUDY    69  69 100 S6        30.07S FOG

$$

INZ028-029-035-036-043>045-051>053-211300-
WEST CENTRAL INDIANA

CITY           SKY/WX    TMP DP  RH WIND       PRES   REMARKS
CRAWFORDSVL +  CLOUDY    66  66 100 SE5       30.06  FOG
LAFAYETTE      CLOUDY    69  69 100 CALM      30.03R
6HR MIN TEMP:  68; 6HR MAX TEMP:  72;

TERRE HAUTE    CLEAR     67  66  97 CALM      30.04R FOG
6HR MIN TEMP:  66; 6HR MAX TEMP:  70;


$$

INZ030>032-037>040-046>048-054>057-064-065-211300-
CENTRAL INDIANA

CITY           SKY/WX    TMP DP  RH WIND       PRES   REMARKS
CP ATTERBURY + FOG       64  63  94 CALM      30.09R VSB 1/4
FISHERS *+     PTCLDY    68  68 100 CALM      30.08R
FRANKFORT +    MOCLDY    70  69  96 CALM      30.07S FOG
6HR MIN TEMP:  69; 6HR MAX TEMP:  72;

GREENWOOD *+   PTCLDY    73  71  96 NE3       30.08S
6HR MIN TEMP:  72; 6HR MAX TEMP:  76;

INDIANAPOLIS   CLOUDY    70  69  97 SE6       30.07R
6HR MIN TEMP:  70; 6HR MAX TEMP:  74;

-EAGLE CREEK   CLOUDY    71  68  90 SE3       30.06S FOG
6HR MIN TEMP:  69; 6HR MAX TEMP:  74;

KOKOMO +       PTCLDY    69  68  96 SE5       30.07R FOG
6HR MIN TEMP:  68; 6HR MAX TEMP:  71;

MT COMFORT *+    N/A    N/A N/A N/A MISG        N/A
SHELBYVILLE    CLOUDY    68  64  87 SE5       30.08R FOG
6HR MIN TEMP:  66; 6HR MAX TEMP:  71;

ZIONSVILLE +     N/A     68  68 100 S3        30.08S
6HR MIN TEMP:  66; 6HR MAX TEMP:  70;


$$

INZ033-034-041-042-049-050-058-059-211300-
EAST CENTRAL INDIANA

CITY           SKY/WX    TMP DP  RH WIND       PRES   REMARKS
MUNCIE         PTCLDY    73  68  84 S6        30.08S
6HR MIN TEMP:  73; 6HR MAX TEMP:  74;

RICHMOND +     CLOUDY    64  64 100 CALM      30.12R FOG

$$

INZ060-061-067>069-081>083-085>088-211300-
SOUTHWEST INDIANA

CITY           SKY/WX    TMP DP  RH WIND       PRES   REMARKS
EVANSVILLE     PTCLDY    69  68  96 CALM      30.06R
6HR MIN TEMP:  69; 6HR MAX TEMP:  73;

HUNTINGBURG +    N/A    N/A N/A N/A MISG        N/A
WASHINGTON +   PTCLDY    69  67  94 CALM      30.05R FOG
6HR MIN TEMP:  69; 6HR MAX TEMP:  73;


$$

INZ062-063-066-070>080-084-089>092-211300-
SOUTH CENTRAL AND SOUTHEAST INDIANA

CITY           SKY/WX    TMP DP  RH WIND       PRES   REMARKS
BEDFORD +      PTCLDY    70  66  88 CALM      30.08R FOG
BLOOMINGTON    CLOUDY    69  66  90 S3        30.08R FOG
6HR MIN TEMP:  66; 6HR MAX TEMP:  74;

MADISON *+     MOCLDY    64  64 100 CALM      30.13R
NORTH VERNON + PTCLDY    64  64 100 CALM      30.10R FOG
SEYMOUR +      FOG       66  66 100 CALM      30.08R VSB 1/2

$$





USA.gov is the U.S. government's official web portal to all federal, state and local government web resources and services.